| time (UTC) | temp F | wind direction | speed knots | gust knots | rain 1hr in | rain 24hr in | rain mn in | humidity % | barometer mb |
| 20260903071911 | 52 | 150 | 0.0 | 0.0 | 0.00 | 0.00 | 0.00 | 97 | 1007.9 |
| 20260903071407 | 52 | 154 | 0.0 | 0.0 | 0.00 | 0.00 | 0.00 | 97 | 1007.7 |
| 20260903070903 | 52 | 126 | 0.0 | 0.0 | 0.00 | 0.00 | 0.00 | 97 | 1007.5 |
| 20260903070357 | 52 | 107 | 0.0 | 0.0 | 0.05 | 0.00 | 0.00 | 97 | 1007.7 |
| 20260903065851 | 52 | 137 | 0.0 | 0.0 | 0.05 | 0.15 | 0.15 | 97 | 1007.7 |
| 20260903065351 | 52 | 116 | 0.0 | 0.0 | 0.00 | 0.14 | 0.14 | 97 | 1007.9 |
| 20260903064845 | 52 | 126 | 0.0 | 0.0 | 0.07 | 0.14 | 0.14 | 96 | 1007.8 |
| 20260903064340 | 52 | 151 | 0.0 | 0.0 | 0.07 | 0.14 | 0.14 | 96 | 1008.1 |
| 20260903063836 | 53 | 151 | 0.0 | 0.0 | 0.07 | 0.13 | 0.13 | 96 | 1007.9 |
| 20260903063331 | 52 | 151 | 0.0 | 0.0 | 0.07 | 0.13 | 0.13 | 96 | 1008.0 |
| 20260903062827 | 52 | 151 | 0.0 | 0.0 | 0.05 | 0.12 | 0.12 | 96 | 1008.1 |
| 20260903062326 | 53 | 152 | 0.0 | 0.0 | 0.05 | 0.12 | 0.12 | 96 | 1008.0 |
| 20260903061823 | 53 | 147 | 0.0 | 0.0 | 0.12 | 0.12 | 0.12 | 96 | 1008.0 |
| 20260903061321 | 53 | 146 | 0.0 | 0.0 | 0.07 | 0.11 | 0.11 | 95 | 1008.1 |
| 20260903060818 | 53 | 173 | 0.0 | 0.0 | 0.05 | 0.10 | 0.10 | 95 | 1008.4 |
| 20260903060311 | 53 | 159 | 0.0 | 0.0 | 0.12 | 0.10 | 0.10 | 95 | 1008.2 |
| 20260903055809 | 53 | 147 | 0.0 | 0.0 | 0.12 | 0.09 | 0.09 | 94 | 1008.1 |
| 20260903055308 | 53 | 143 | 0.0 | 0.0 | 0.05 | 0.08 | 0.08 | 94 | 1008.2 |
| 20260903054802 | 53 | 134 | 0.0 | 0.0 | 0.07 | 0.07 | 0.07 | 94 | 1008.3 |
| 20260903054257 | 53 | 145 | 0.0 | 0.0 | 0.07 | 0.07 | 0.07 | 94 | 1008.5 |
| 20260903053754 | 53 | 122 | 0.0 | 0.0 | 0.00 | 0.06 | 0.06 | 94 | 1008.2 |
| 20260903053254 | 53 | 121 | 0.0 | 0.0 | 0.05 | 0.06 | 0.06 | 94 | 1008.3 |
| 20260903052744 | 53 | 124 | 0.0 | 0.0 | 0.05 | 0.06 | 0.06 | 94 | 1008.2 |
| 20260903052239 | 53 | 124 | 0.0 | 0.0 | 0.05 | 0.06 | 0.06 | 94 | 1008.4 |
| 20260903051734 | 53 | 125 | 0.0 | 0.0 | 0.00 | 0.05 | 0.05 | 94 | 1008.4 |
| 20260903051230 | 54 | 125 | 0.0 | 0.0 | 0.00 | 0.05 | 0.05 | 93 | 1008.3 |
| 20260903050726 | 54 | 124 | 0.0 | 0.0 | 0.00 | 0.05 | 0.05 | 93 | 1008.3 |
| 20260903050224 | 53 | 124 | 0.0 | 0.0 | 0.07 | 0.05 | 0.05 | 93 | 1008.1 |
| 20260903045720 | 53 | 124 | 0.0 | 0.0 | 0.07 | 0.05 | 0.05 | 93 | 1008.3 |
| 20260903045216 | 54 | 124 | 0.0 | 0.0 | 0.00 | 0.04 | 0.04 | 93 | 1008.3 |
| 20260903044712 | 54 | 140 | 0.0 | 0.0 | 0.00 | 0.04 | 0.04 | 93 | 1008.3 |
| 20260903044207 | 54 | 139 | 0.0 | 0.0 | 0.00 | 0.04 | 0.04 | 92 | 1008.4 |
| 20260903043704 | 54 | 139 | 0.0 | 0.0 | 0.00 | 0.04 | 0.04 | 92 | 1008.1 |
| 20260903043203 | 54 | 150 | 0.0 | 0.0 | 0.00 | 0.04 | 0.04 | 92 | 1008.3 |
| 20260903042702 | 54 | 147 | 0.0 | 0.0 | 0.00 | 0.04 | 0.04 | 91 | 1008.2 |
| 20260903042157 | 54 | 148 | 0.9 | 0.9 | 0.00 | 0.04 | 0.04 | 90 | 1008.2 |
| 20260903041654 | 54 | 160 | 0.9 | 0.9 | 0.05 | 0.04 | 0.04 | 87 | 1008.3 |
| 20260903041149 | 54 | 157 | 1.7 | 1.7 | 0.05 | 0.04 | 0.04 | 87 | 1007.9 |
| 20260903040649 | 55 | 146 | 0.0 | 0.0 | 0.00 | 0.03 | 0.03 | 85 | 1008.0 |
| 20260903040144 | 55 | 159 | 0.0 | 0.0 | 0.00 | 0.03 | 0.03 | 85 | 1008.1 |
| 20260903035639 | 54 | 142 | 0.0 | 0.0 | 0.00 | 0.03 | 0.03 | 83 | 1008.0 |
| 20260903035130 | 55 | 174 | 1.7 | 1.7 | 0.00 | 0.03 | 0.03 | 83 | 1007.9 |
| 20260903034629 | 55 | 167 | 1.7 | 1.7 | 0.00 | 0.03 | 0.03 | 83 | 1007.9 |
| 20260903034119 | 56 | 138 | 0.0 | 0.9 | 0.00 | 0.03 | 0.03 | 80 | 1007.9 |
| 20260903033615 | 56 | 156 | 0.0 | 0.0 | 0.00 | 0.03 | 0.03 | 78 | 1007.9 |
| 20260903033109 | 57 | 213 | 3.5 | 5.2 | 0.07 | 0.03 | 0.03 | 74 | 1007.9 |
| 20260903032604 | 57 | 200 | 1.7 | 1.7 | 0.07 | 0.03 | 0.03 | 76 | 1008.0 |
| 20260903032059 | 57 | 168 | 2.6 | 3.5 | 0.00 | 0.02 | 0.02 | 74 | 1007.9 |
| 20260903031554 | 57 | 151 | 3.5 | 5.2 | 0.00 | 0.02 | 0.02 | 76 | 1007.9 |
| 20260903031049 | 56 | 146 | 0.9 | 1.7 | 0.00 | 0.02 | 0.02 | 85 | 1008.0 |
| 20260903030544 | 56 | 138 | 0.0 | 0.0 | 0.00 | 0.02 | 0.02 | 87 | 1007.8 |
| 20260903030041 | 57 | 148 | 0.0 | 0.0 | 0.00 | 0.02 | 0.02 | 88 | 1007.4 |
| 20260903025536 | 56 | 155 | 0.0 | 0.9 | 0.00 | 0.02 | 0.02 | 87 | 1007.8 |
| 20260903025032 | 56 | 129 | 0.0 | 0.0 | 0.00 | 0.02 | 0.02 | 87 | 1007.9 |
| 20260903024531 | 56 | 144 | 0.0 | 0.9 | 0.00 | 0.02 | 0.02 | 88 | 1007.7 |
| 20260903024026 | 56 | 139 | 0.9 | 0.9 | 0.00 | 0.02 | 0.02 | 87 | 1007.7 |
| 20260903023521 | 56 | 134 | 0.0 | 0.0 | 0.00 | 0.02 | 0.02 | 88 | 1007.8 |
| 20260903023017 | 56 | 143 | 0.0 | 0.0 | 0.00 | 0.02 | 0.02 | 88 | 1007.8 |
| 20260903022516 | 56 | 120 | 0.0 | 0.0 | 0.00 | 0.02 | 0.02 | 87 | 1007.4 |
| 20260903022014 | 57 | 123 | 0.0 | 0.0 | 0.00 | 0.02 | 0.02 | 86 | 1007.2 |
| 20260903021509 | 57 | 127 | 0.9 | 0.9 | 0.00 | 0.02 | 0.02 | 85 | 1007.2 |
| 20260903021004 | 57 | 77 | 0.9 | 1.7 | 0.07 | 0.02 | 0.02 | 82 | 1007.5 |
| 20260903020459 | 58 | 170 | 0.9 | 0.9 | 0.12 | 0.02 | 0.02 | 82 | 1007.5 |
| 20260903015954 | 59 | 87 | 0.9 | 1.7 | 0.05 | 0.01 | 0.01 | 81 | 1007.4 |
| 20260903015450 | 59 | 172 | 1.7 | 2.6 | 0.00 | 0.00 | 0.00 | 76 | 1007.3 |
| 20260903014944 | 60 | 154 | 0.9 | 0.9 | 0.00 | 0.00 | 0.00 | 72 | 1007.2 |
| 20260903014443 | 61 | 130 | 0.0 | 0.0 | 0.00 | 0.00 | 0.00 | 69 | 1007.1 |
| 20260903013938 | 61 | 146 | 0.0 | 0.0 | 0.00 | 0.00 | 0.00 | 66 | 1007.2 |
| 20260903013433 | 62 | 148 | 0.0 | 0.0 | 0.00 | 0.00 | 0.00 | 61 | 1007.2 |
| 20260903012932 | 62 | 210 | 0.0 | 0.9 | 0.00 | 0.00 | 0.00 | 59 | 1007.0 |
| 20260903012432 | 64 | 167 | 0.9 | 1.7 | 0.00 | 0.00 | 0.00 | 57 | 1006.9 |
| 20260903011930 | 64 | 163 | 0.9 | 1.7 | 0.00 | 0.00 | 0.00 | 53 | 1006.9 |
| 20260903011426 | 65 | 252 | 3.5 | 5.2 | 0.00 | 0.00 | 0.00 | 51 | 1006.8 |
| 20260903010920 | 65 | 265 | 5.2 | 6.1 | 0.00 | 0.00 | 0.00 | 48 | 1006.4 |
| 20260903010416 | 65 | 205 | 2.6 | 2.6 | 0.00 | 0.00 | 0.00 | 48 | 1006.7 |
| 20260903005913 | 66 | 263 | 4.3 | 5.2 | 0.00 | 0.00 | 0.00 | 47 | 1006.4 |
| 20260903005409 | 66 | 280 | 5.2 | 6.1 | 0.00 | 0.00 | 0.00 | 47 | 1006.1 |
| 20260903004906 | 66 | 264 | 6.1 | 7.8 | 0.00 | 0.00 | 0.00 | 47 | 1006.2 |
| 20260903004401 | 66 | 249 | 4.3 | 6.1 | 0.00 | 0.00 | 0.00 | 46 | 1006.2 |
| 20260903003856 | 67 | 275 | 3.5 | 5.2 | 0.00 | 0.00 | 0.00 | 45 | 1006.4 |
| 20260903003350 | 67 | 306 | 3.5 | 3.5 | 0.00 | 0.00 | 0.00 | 44 | 1005.9 |
| 20260903002850 | 67 | 258 | 5.2 | 6.1 | 0.00 | 0.00 | 0.00 | 43 | 1006.0 |
| 20260903002345 | 68 | 272 | 5.2 | 6.1 | 0.00 | 0.00 | 0.00 | 43 | 1005.9 |
| 20260903001840 | 68 | 240 | 5.2 | 7.0 | 0.00 | 0.00 | 0.00 | 42 | 1006.0 |
| 20260903001335 | 68 | 282 | 3.5 | 5.2 | 0.00 | 0.00 | 0.00 | 41 | 1005.7 |
| 20260903000835 | 68 | 180 | 3.5 | 3.5 | 0.00 | 0.00 | 0.00 | 41 | 1005.5 |
| 20260903000332 | 68 | 287 | 1.7 | 1.7 | 0.00 | 0.00 | 0.00 | 42 | 1005.7 |
| 20260902235828 | 68 | 228 | 3.5 | 5.2 | 0.00 | 0.00 | 0.00 | 42 | 1005.7 |
| 20260902235323 | 69 | 205 | 3.5 | 3.5 | 0.00 | 0.00 | 0.00 | 42 | 1005.6 |
| 20260902234818 | 69 | 205 | 1.7 | 2.6 | 0.00 | 0.00 | 0.00 | 42 | 1005.2 |
| 20260902234317 | 68 | 192 | 1.7 | 2.6 | 0.00 | 0.00 | 0.00 | 42 | 1005.2 |
| 20260902233816 | 69 | 224 | 4.3 | 5.2 | 0.00 | 0.00 | 0.00 | 40 | 1005.3 |
| 20260902233311 | 69 | 288 | 2.6 | 3.5 | 0.00 | 0.00 | 0.00 | 41 | 1005.2 |
| 20260902232809 | 69 | 251 | 7.8 | 8.7 | 0.00 | 0.00 | 0.00 | 39 | 1005.2 |
| 20260902232310 | 68 | 277 | 6.1 | 7.8 | 0.00 | 0.00 | 0.00 | 41 | 1005.2 |
| 20260902231809 | 69 | 279 | 7.8 | 9.6 | 0.00 | 0.00 | 0.00 | 41 | 1005.5 |
| 20260902231304 | 69 | 262 | 7.8 | 8.7 | 0.00 | 0.00 | 0.00 | 40 | 1005.6 |
| 20260902230759 | 70 | 238 | 4.3 | 5.2 | 0.00 | 0.00 | 0.00 | 40 | 1005.3 |
| 20260902230258 | 70 | 236 | 4.3 | 6.1 | 0.00 | 0.00 | 0.00 | 39 | 1005.8 |
| 20260902225753 | 70 | 271 | 4.3 | 6.1 | 0.00 | 0.00 | 0.00 | 39 | 1005.1 |
| 20260902225248 | 70 | 273 | 1.7 | 2.6 | 0.00 | 0.00 | 0.00 | 38 | 1005.4 |
| 20260902224746 | 70 | 319 | 5.2 | 7.0 | 0.00 | 0.00 | 0.00 | 39 | 1005.2 |
| 20260902224242 | 70 | 212 | 6.1 | 7.8 | 0.00 | 0.00 | 0.00 | 39 | 1004.9 |
| 20260902223738 | 70 | 290 | 4.3 | 5.2 | 0.00 | 0.00 | 0.00 | 40 | 1004.9 |
| 20260902223237 | 71 | 236 | 7.0 | 8.7 | 0.00 | 0.00 | 0.00 | 37 | 1004.7 |
| 20260902222736 | 71 | 163 | 1.7 | 2.6 | 0.00 | 0.00 | 0.00 | 39 | 1004.8 |
| 20260902222231 | 71 | 152 | 0.0 | 0.0 | 0.00 | 0.00 | 0.00 | 39 | 1004.7 |
| 20260902221725 | 71 | 176 | 1.7 | 1.7 | 0.00 | 0.00 | 0.00 | 38 | 1004.6 |
| 20260902221219 | 71 | 152 | 0.9 | 1.7 | 0.00 | 0.00 | 0.00 | 38 | 1004.6 |
| 20260902220714 | 71 | 141 | 1.7 | 2.6 | 0.00 | 0.00 | 0.00 | 38 | 1004.7 |
| 20260902220214 | 71 | 174 | 4.3 | 7.0 | 0.00 | 0.00 | 0.00 | 38 | 1004.8 |
| 20260902215710 | 72 | 165 | 0.9 | 0.9 | 0.00 | 0.00 | 0.00 | 37 | 1004.8 |
| 20260902215205 | 74 | 139 | 0.0 | 0.9 | 0.00 | 0.00 | 0.00 | 37 | 1004.7 |
| 20260902214701 | 73 | 175 | 0.9 | 0.9 | 0.00 | 0.00 | 0.00 | 37 | 1005.2 |
| 20260902214159 | 72 | 175 | 2.6 | 2.6 | 0.00 | 0.00 | 0.00 | 39 | 1005.4 |
| 20260902213655 | 71 | 204 | 3.5 | 5.2 | 0.00 | 0.00 | 0.00 | 39 | 1005.3 |
| 20260902213149 | 71 | 147 | 2.6 | 2.6 | 0.00 | 0.00 | 0.00 | 39 | 1005.4 |
| 20260902212644 | 71 | 138 | 0.9 | 1.7 | 0.00 | 0.00 | 0.00 | 40 | 1005.6 |
| 20260902212141 | 71 | 173 | 0.9 | 0.9 | 0.00 | 0.00 | 0.00 | 39 | 1005.5 |
| 20260902211636 | 71 | 222 | 3.5 | 5.2 | 0.00 | 0.00 | 0.00 | 39 | 1005.4 |
| 20260902211131 | 71 | 148 | 0.9 | 1.7 | 0.00 | 0.00 | 0.00 | 39 | 1005.3 |
| 20260902210631 | 71 | 173 | 1.7 | 1.7 | 0.00 | 0.00 | 0.00 | 40 | 1005.5 |
| 20260902210126 | 71 | 162 | 0.9 | 0.9 | 0.00 | 0.00 | 0.00 | 39 | 1005.4 |
| 20260902205624 | 69 | 179 | 1.7 | 2.6 | 0.00 | 0.00 | 0.00 | 41 | 1005.3 |
| 20260902205120 | 69 | 168 | 0.9 | 0.9 | 0.00 | 0.00 | 0.00 | 42 | 1005.4 |
| 20260902204615 | 69 | 144 | 0.9 | 0.9 | 0.00 | 0.00 | 0.00 | 43 | 1005.6 |
| 20260902204109 | 69 | 152 | 0.0 | 0.9 | 0.00 | 0.00 | 0.00 | 42 | 1005.6 |
| 20260902203605 | 69 | 141 | 0.0 | 0.0 | 0.00 | 0.00 | 0.00 | 42 | 1005.4 |
| 20260902203104 | 69 | 184 | 0.9 | 1.7 | 0.00 | 0.00 | 0.00 | 42 | 1005.4 |
| 20260902202600 | 69 | 166 | 1.7 | 1.7 | 0.00 | 0.00 | 0.00 | 42 | 1005.6 |
| 20260902202056 | 70 | 217 | 0.9 | 1.7 | 0.00 | 0.00 | 0.00 | 41 | 1005.6 |
| 20260902201551 | 70 | 183 | 3.5 | 3.5 | 0.00 | 0.00 | 0.00 | 41 | 1005.7 |
| 20260902201045 | 71 | 150 | 5.2 | 7.0 | 0.00 | 0.00 | 0.00 | 40 | 1005.7 |
| 20260902200540 | 72 | 142 | 0.0 | 0.9 | 0.00 | 0.00 | 0.00 | 39 | 1005.7 |
| 20260902200037 | 71 | 181 | 3.5 | 3.5 | 0.00 | 0.00 | 0.00 | 39 | 1005.5 |
| 20260902195532 | 72 | 144 | 1.7 | 1.7 | 0.00 | 0.00 | 0.00 | 40 | 1005.7 |
| 20260902195030 | 72 | 139 | 4.3 | 7.8 | 0.00 | 0.00 | 0.00 | 39 | 1005.9 |
| 20260902194524 | 71 | 147 | 0.9 | 1.7 | 0.00 | 0.00 | 0.00 | 40 | 1005.9 |
| 20260902194020 | 72 | 137 | 3.5 | 3.5 | 0.00 | 0.00 | 0.00 | 39 | 1006.2 |
| 20260902193515 | 71 | 129 | 4.3 | 6.1 | 0.00 | 0.00 | 0.00 | 40 | 1006.0 |
| 20260902193015 | 74 | 180 | 10.4 | 13.9 | 0.00 | 0.00 | 0.00 | 37 | 1006.2 |
| 20260902192514 | 73 | 129 | 3.5 | 3.5 | 0.00 | 0.00 | 0.00 | 38 | 1005.8 |
| 20260902192013 | 73 | 141 | 1.7 | 1.7 | 0.00 | 0.00 | 0.00 | 39 | 1006.1 |
| 20260902191509 | 72 | 130 | 0.9 | 0.9 | 0.00 | 0.00 | 0.00 | 40 | 1006.1 |
| 20260902191003 | 73 | 190 | 4.3 | 6.1 | 0.00 | 0.00 | 0.00 | 40 | 1006.2 |
| 20260902190458 | 71 | 185 | 4.3 | 6.1 | 0.00 | 0.00 | 0.00 | 41 | 1006.4 |
| 20260902185954 | 69 | 133 | 1.7 | 1.7 | 0.00 | 0.00 | 0.00 | 44 | 1006.2 |
| 20260902185449 | 70 | 177 | 4.3 | 6.1 | 0.00 | 0.00 | 0.00 | 43 | 1006.1 |
| 20260902184944 | 70 | 139 | 2.6 | 2.6 | 0.00 | 0.00 | 0.00 | 42 | 1006.4 |
| 20260902184439 | 72 | 183 | 2.6 | 2.6 | 0.00 | 0.00 | 0.00 | 43 | 1006.6 |
| 20260902183935 | 70 | 148 | 0.9 | 1.7 | 0.00 | 0.00 | 0.00 | 43 | 1006.7 |
| 20260902183431 | 70 | 137 | 2.6 | 2.6 | 0.00 | 0.00 | 0.00 | 43 | 1006.5 |
| 20260902182927 | 70 | 177 | 3.5 | 5.2 | 0.00 | 0.00 | 0.00 | 44 | 1006.5 |
| 20260902182423 | 70 | 55 | 0.9 | 2.6 | 0.00 | 0.00 | 0.00 | 43 | 1006.5 |
| 20260902181919 | 71 | 146 | 1.7 | 2.6 | 0.00 | 0.00 | 0.00 | 43 | 1006.8 |
| 20260902181414 | 70 | 145 | 1.7 | 3.5 | 0.00 | 0.00 | 0.00 | 44 | 1006.8 |
| 20260902180909 | 69 | 135 | 0.0 | 0.0 | 0.00 | 0.00 | 0.00 | 43 | 1006.9 |
| 20260902180405 | 69 | 119 | 0.9 | 3.5 | 0.00 | 0.00 | 0.00 | 44 | 1007.0 |
| 20260902175900 | 68 | 131 | 0.9 | 1.7 | 0.00 | 0.00 | 0.00 | 45 | 1007.2 |
| 20260902175355 | 68 | 172 | 2.6 | 2.6 | 0.00 | 0.00 | 0.00 | 45 | 1006.9 |
| 20260902174850 | 68 | 96 | 1.7 | 1.7 | 0.00 | 0.00 | 0.00 | 46 | 1007.2 |
| 20260902174347 | 67 | 134 | 0.0 | 0.9 | 0.00 | 0.00 | 0.00 | 47 | 1007.2 |
| 20260902173837 | 67 | 142 | 1.7 | 2.6 | 0.00 | 0.00 | 0.00 | 47 | 1007.3 |
| 20260902173336 | 67 | 145 | 1.7 | 1.7 | 0.00 | 0.00 | 0.00 | 47 | 1007.4 |
| 20260902172831 | 67 | 103 | 0.9 | 0.9 | 0.00 | 0.00 | 0.00 | 47 | 1007.2 |
| 20260902172331 | 66 | 135 | 0.9 | 0.9 | 0.00 | 0.00 | 0.00 | 48 | 1007.4 |
| 20260902171825 | 67 | 123 | 0.9 | 1.7 | 0.00 | 0.00 | 0.00 | 48 | 1007.5 |
| 20260902171320 | 65 | 131 | 1.7 | 2.6 | 0.00 | 0.00 | 0.00 | 48 | 1007.4 |
| 20260902170812 | 66 | 132 | 0.9 | 0.9 | 0.00 | 0.00 | 0.00 | 48 | 1007.5 |
| 20260902170307 | 65 | 123 | 0.9 | 1.7 | 0.00 | 0.00 | 0.00 | 50 | 1007.5 |
| 20260902165802 | 65 | 92 | 1.7 | 1.7 | 0.00 | 0.00 | 0.00 | 51 | 1007.5 |
| 20260902165256 | 64 | 144 | 0.9 | 0.9 | 0.00 | 0.00 | 0.00 | 51 | 1007.5 |
| 20260902164750 | 64 | 121 | 0.9 | 0.9 | 0.00 | 0.00 | 0.00 | 52 | 1007.7 |
| 20260902164244 | 64 | 89 | 2.6 | 3.5 | 0.00 | 0.00 | 0.00 | 52 | 1007.5 |
| 20260902163739 | 64 | 98 | 3.5 | 3.5 | 0.00 | 0.00 | 0.00 | 52 | 1007.7 |
| 20260902163233 | 63 | 130 | 1.7 | 1.7 | 0.00 | 0.00 | 0.00 | 53 | 1007.7 |
| 20260902162732 | 64 | 129 | 0.9 | 1.7 | 0.00 | 0.00 | 0.00 | 53 | 1007.5 |
| 20260902162227 | 64 | 83 | 0.9 | 1.7 | 0.00 | 0.00 | 0.00 | 50 | 1007.5 |
| 20260902161722 | 64 | 137 | 0.9 | 1.7 | 0.00 | 0.00 | 0.00 | 51 | 1007.4 |
| 20260902161218 | 64 | 141 | 0.9 | 1.7 | 0.00 | 0.00 | 0.00 | 50 | 1007.3 |
| 20260902160714 | 62 | 126 | 0.0 | 0.0 | 0.00 | 0.00 | 0.00 | 53 | 1007.4 |
| 20260902160208 | 61 | 134 | 0.0 | 0.0 | 0.00 | 0.00 | 0.00 | 55 | 1007.3 |
| 20260902155707 | 61 | 126 | 0.9 | 1.7 | 0.00 | 0.00 | 0.00 | 55 | 1007.2 |
| 20260902155205 | 61 | 103 | 0.9 | 0.9 | 0.00 | 0.00 | 0.00 | 55 | 1007.1 |
| 20260902154701 | 60 | 84 | 1.7 | 2.6 | 0.00 | 0.00 | 0.00 | 57 | 1007.4 |
| 20260902154200 | 60 | 95 | 1.7 | 1.7 | 0.00 | 0.00 | 0.00 | 58 | 1007.3 |
| 20260902153655 | 60 | 77 | 1.7 | 1.7 | 0.00 | 0.00 | 0.00 | 58 | 1007.1 |
| 20260902153150 | 59 | 129 | 0.0 | 0.9 | 0.00 | 0.00 | 0.00 | 58 | 1007.5 |
| 20260902152646 | 59 | 309 | 0.9 | 1.7 | 0.00 | 0.00 | 0.00 | 59 | 1007.3 |
| 20260902152141 | 59 | 356 | 1.7 | 1.7 | 0.00 | 0.00 | 0.00 | 59 | 1007.3 |
| 20260902151636 | 59 | 142 | 0.9 | 0.9 | 0.00 | 0.00 | 0.00 | 58 | 1007.4 |
| 20260902151131 | 59 | 162 | 0.9 | 0.9 | 0.00 | 0.00 | 0.00 | 59 | 1007.3 |
| 20260902150626 | 59 | 129 | 1.7 | 2.6 | 0.00 | 0.00 | 0.00 | 59 | 1007.4 |
| 20260902150121 | 58 | 318 | 2.6 | 2.6 | 0.00 | 0.00 | 0.00 | 60 | 1007.7 |
| 20260902145616 | 57 | 95 | 1.7 | 1.7 | 0.00 | 0.00 | 0.00 | 62 | 1007.9 |
| 20260902145115 | 56 | 187 | 0.0 | 0.0 | 0.00 | 0.00 | 0.00 | 67 | 1007.8 |
| 20260902144613 | 57 | 115 | 0.9 | 0.9 | 0.00 | 0.00 | 0.00 | 64 | 1007.2 |
| 20260902144112 | 55 | 136 | 0.0 | 0.0 | 0.00 | 0.00 | 0.00 | 66 | 1007.3 |
| 20260902143607 | 55 | 144 | 0.0 | 0.0 | 0.00 | 0.00 | 0.00 | 68 | 1007.3 |
| 20260902143103 | 54 | 353 | 0.9 | 1.7 | 0.00 | 0.00 | 0.00 | 70 | 1007.1 |
| 20260902142558 | 54 | 151 | 0.9 | 1.7 | 0.00 | 0.00 | 0.00 | 72 | 1007.0 |
| 20260902142054 | 54 | 137 | 0.0 | 0.0 | 0.00 | 0.00 | 0.00 | 72 | 1007.3 |
| 20260902141548 | 54 | 115 | 0.9 | 0.9 | 0.00 | 0.00 | 0.00 | 72 | 1007.3 |
| 20260902141043 | 54 | 150 | 0.9 | 0.9 | 0.00 | 0.00 | 0.00 | 71 | 1007.2 |
| 20260902140538 | 54 | 170 | 3.5 | 3.5 | 0.00 | 0.00 | 0.00 | 71 | 1007.4 |
| 20260902140034 | 54 | 153 | 0.9 | 0.9 | 0.00 | 0.00 | 0.00 | 72 | 1007.3 |
| 20260902135533 | 54 | 141 | 0.9 | 0.9 | 0.00 | 0.00 | 0.00 | 72 | 1007.1 |
| 20260902135028 | 54 | 125 | 0.0 | 0.0 | 0.00 | 0.00 | 0.00 | 71 | 1007.0 |
| 20260902134523 | 54 | 144 | 0.0 | 0.0 | 0.00 | 0.00 | 0.00 | 70 | 1007.3 |
| 20260902134018 | 54 | 144 | 0.0 | 0.0 | 0.00 | 0.00 | 0.00 | 70 | 1007.3 |
| 20260902133513 | 54 | 120 | 0.0 | 0.0 | 0.00 | 0.00 | 0.00 | 70 | 1007.3 |
| 20260902133012 | 55 | 94 | 0.9 | 0.9 | 0.00 | 0.00 | 0.00 | 69 | 1007.5 |
| 20260902132508 | 55 | 146 | 0.0 | 0.9 | 0.00 | 0.00 | 0.00 | 69 | 1007.7 |
| 20260902132003 | 55 | 103 | 0.9 | 0.9 | 0.00 | 0.00 | 0.00 | 69 | 1008.0 |
| 20260902131459 | 55 | 147 | 0.0 | 0.0 | 0.00 | 0.00 | 0.00 | 69 | 1007.9 |
| 20260902130958 | 54 | 236 | 1.7 | 1.7 | 0.00 | 0.00 | 0.00 | 70 | 1008.2 |
| 20260902130454 | 53 | 129 | 1.7 | 1.7 | 0.00 | 0.00 | 0.00 | 71 | 1007.7 |
| 20260902125949 | 53 | 150 | 1.7 | 1.7 | 0.00 | 0.00 | 0.00 | 72 | 1007.5 |
| 20260902125446 | 53 | 114 | 0.9 | 0.9 | 0.00 | 0.00 | 0.00 | 72 | 1007.7 |
| 20260902124941 | 54 | 141 | 0.0 | 0.9 | 0.00 | 0.00 | 0.00 | 71 | 1008.0 |
| 20260902124437 | 54 | 162 | 0.9 | 0.9 | 0.00 | 0.00 | 0.00 | 71 | 1007.9 |
| 20260902123932 | 54 | 147 | 0.0 | 0.0 | 0.00 | 0.00 | 0.00 | 70 | 1007.8 |
| 20260902123429 | 54 | 148 | 0.0 | 0.0 | 0.00 | 0.00 | 0.00 | 70 | 1007.5 |
| 20260902122926 | 54 | 125 | 0.0 | 0.0 | 0.00 | 0.00 | 0.00 | 70 | 1007.3 |
| 20260902122423 | 54 | 73 | 0.9 | 1.7 | 0.00 | 0.00 | 0.00 | 70 | 1007.3 |
| 20260902121918 | 54 | 99 | 0.9 | 0.9 | 0.00 | 0.00 | 0.00 | 69 | 1007.7 |
| 20260902121412 | 54 | 144 | 0.0 | 0.0 | 0.00 | 0.00 | 0.00 | 70 | 1007.8 |
| 20260902120908 | 54 | 153 | 0.0 | 0.0 | 0.00 | 0.00 | 0.00 | 69 | 1007.4 |
| 20260902120404 | 54 | 145 | 0.9 | 0.9 | 0.00 | 0.00 | 0.00 | 69 | 1007.4 |
| 20260902115904 | 54 | 173 | 1.7 | 1.7 | 0.00 | 0.00 | 0.00 | 69 | 1007.4 |
| 20260902115400 | 54 | 165 | 1.7 | 1.7 | 0.00 | 0.00 | 0.00 | 69 | 1007.2 |
| 20260902114856 | 55 | 146 | 0.0 | 0.0 | 0.00 | 0.00 | 0.00 | 69 | 1007.3 |
| 20260902114351 | 55 | 157 | 0.0 | 0.0 | 0.00 | 0.00 | 0.00 | 69 | 1006.8 |
| 20260902113846 | 55 | 141 | 0.0 | 0.0 | 0.00 | 0.00 | 0.00 | 68 | 1006.9 |
| 20260902113342 | 55 | 156 | 0.9 | 0.9 | 0.00 | 0.00 | 0.00 | 67 | 1006.9 |
| 20260902112841 | 55 | 140 | 0.0 | 0.9 | 0.00 | 0.00 | 0.00 | 67 | 1007.0 |
| 20260902112338 | 55 | 150 | 1.7 | 1.7 | 0.00 | 0.00 | 0.00 | 67 | 1007.1 |
| 20260902111833 | 55 | 153 | 0.9 | 0.9 | 0.00 | 0.00 | 0.00 | 67 | 1007.1 |
| 20260902111329 | 55 | 162 | 0.0 | 0.0 | 0.00 | 0.00 | 0.00 | 67 | 1007.3 |
| 20260902110824 | 55 | 142 | 0.0 | 0.9 | 0.00 | 0.00 | 0.00 | 67 | 1007.2 |
| 20260902110320 | 56 | 126 | 0.9 | 0.9 | 0.00 | 0.00 | 0.00 | 67 | 1007.7 |
| 20260902105820 | 56 | 150 | 1.7 | 1.7 | 0.00 | 0.00 | 0.00 | 66 | 1007.3 |
| 20260902105315 | 56 | 142 | 0.0 | 0.0 | 0.00 | 0.00 | 0.00 | 66 | 1007.1 |
| 20260902104810 | 56 | 142 | 0.0 | 0.0 | 0.00 | 0.00 | 0.00 | 66 | 1007.2 |
| 20260902104306 | 56 | 141 | 0.0 | 0.0 | 0.00 | 0.00 | 0.00 | 66 | 1007.3 |
| 20260902103806 | 56 | 156 | 0.9 | 1.7 | 0.00 | 0.00 | 0.00 | 65 | 1007.5 |
| 20260902103301 | 57 | 125 | 0.0 | 0.0 | 0.00 | 0.00 | 0.00 | 65 | 1007.0 |
| 20260902102756 | 56 | 137 | 0.0 | 0.0 | 0.00 | 0.00 | 0.00 | 65 | 1007.0 |
| 20260902102254 | 56 | 62 | 0.9 | 1.7 | 0.00 | 0.00 | 0.00 | 66 | 1007.1 |
| 20260902101749 | 56 | 135 | 0.0 | 0.0 | 0.00 | 0.00 | 0.00 | 65 | 1007.3 |
| 20260902101244 | 56 | 125 | 0.0 | 0.0 | 0.00 | 0.00 | 0.00 | 65 | 1007.1 |
| 20260902100743 | 56 | 145 | 0.0 | 0.0 | 0.00 | 0.00 | 0.00 | 65 | 1007.0 |
| 20260902100237 | 56 | 131 | 0.0 | 0.0 | 0.00 | 0.00 | 0.00 | 64 | 1007.0 |
| 20260902095731 | 57 | 115 | 0.0 | 0.0 | 0.00 | 0.00 | 0.00 | 63 | 1006.7 |
| 20260902095226 | 57 | 95 | 0.9 | 0.9 | 0.00 | 0.00 | 0.00 | 63 | 1006.9 |
| 20260902094721 | 56 | 109 | 0.9 | 1.7 | 0.00 | 0.00 | 0.00 | 64 | 1007.0 |
| 20260902094217 | 55 | 357 | 0.9 | 1.7 | 0.00 | 0.00 | 0.00 | 66 | 1007.0 |
| 20260902093715 | 55 | 112 | 0.9 | 0.9 | 0.00 | 0.00 | 0.00 | 66 | 1006.9 |
| 20260902093211 | 55 | 118 | 0.0 | 0.0 | 0.00 | 0.00 | 0.00 | 65 | 1006.8 |
| 20260902092706 | 55 | 132 | 0.0 | 0.0 | 0.00 | 0.00 | 0.00 | 65 | 1007.1 |
| 20260902092201 | 55 | 115 | 0.0 | 0.0 | 0.00 | 0.00 | 0.00 | 65 | 1007.0 |
| 20260902091655 | 55 | 133 | 0.0 | 0.0 | 0.00 | 0.00 | 0.00 | 65 | 1007.0 |
| 20260902091152 | 56 | 129 | 0.0 | 0.0 | 0.00 | 0.00 | 0.00 | 63 | 1006.9 |
| 20260902090647 | 57 | 148 | 0.0 | 0.0 | 0.00 | 0.00 | 0.00 | 62 | 1007.0 |
| 20260902090147 | 58 | 132 | 0.0 | 0.0 | 0.00 | 0.00 | 0.00 | 61 | 1007.0 |
| 20260902085641 | 59 | 115 | 0.0 | 0.0 | 0.00 | 0.00 | 0.00 | 59 | 1007.1 |
| 20260902085142 | 58 | 117 | 0.9 | 1.7 | 0.00 | 0.00 | 0.00 | 59 | 1007.3 |
| 20260902084638 | 59 | 116 | 0.0 | 0.0 | 0.00 | 0.00 | 0.00 | 58 | 1007.2 |
| 20260902084134 | 60 | 310 | 0.9 | 0.9 | 0.00 | 0.00 | 0.00 | 56 | 1007.2 |
| 20260902083628 | 61 | 281 | 2.6 | 3.5 | 0.00 | 0.00 | 0.00 | 56 | 1007.0 |
| 20260902083127 | 60 | 269 | 6.1 | 8.7 | 0.00 | 0.00 | 0.00 | 56 | 1006.9 |
| 20260902082623 | 60 | 222 | 3.5 | 6.1 | 0.00 | 0.00 | 0.00 | 57 | 1006.9 |
| 20260902082120 | 60 | 131 | 0.0 | 0.0 | 0.00 | 0.00 | 0.00 | 56 | 1006.9 |
| 20260902081616 | 60 | 113 | 0.0 | 0.9 | 0.00 | 0.00 | 0.00 | 55 | 1006.9 |
| 20260902081116 | 61 | 149 | 0.9 | 0.9 | 0.00 | 0.00 | 0.00 | 55 | 1006.9 |
| 20260902080611 | 62 | 240 | 2.6 | 2.6 | 0.00 | 0.00 | 0.00 | 54 | 1006.8 |
| 20260902080108 | 62 | 209 | 2.6 | 3.5 | 0.00 | 0.00 | 0.00 | 54 | 1006.8 |
| 20260902075607 | 62 | 306 | 7.0 | 8.7 | 0.00 | 0.00 | 0.00 | 54 | 1007.0 |
| 20260902075103 | 62 | 250 | 5.2 | 6.1 | 0.00 | 0.00 | 0.00 | 52 | 1006.9 |
| 20260902074559 | 63 | 186 | 1.7 | 1.7 | 0.00 | 0.00 | 0.00 | 51 | 1007.0 |
| 20260902074054 | 62 | 209 | 2.6 | 2.6 | 0.00 | 0.00 | 0.00 | 52 | 1006.9 |
| 20260902073549 | 59 | 138 | 0.0 | 0.9 | 0.00 | 0.00 | 0.00 | 53 | 1006.9 |
| 20260902073046 | 58 | 153 | 0.9 | 0.9 | 0.00 | 0.00 | 0.00 | 54 | 1006.8 |
| 20260902072541 | 57 | 147 | 0.0 | 0.0 | 0.00 | 0.00 | 0.00 | 59 | 1006.9 |